Regional Weather Roundup
Issued by NWS

Home | Current Version | Previous Version | Text Only | Print | Product List | Glossary On
Versions: 1 2 3 4 5 6 7 8 9 10 11 12 13 14 15 16 17 18 19 20 21 22 23 24 25 26 27 28 29 30 31 32 33 34 35 36 37 38 39 40 41 42 43 44 45 46 47 48 49 50
000
ASUS43 KLOT 281410
RWRIL

ILLINOIS REGIONAL WEATHER ROUNDUP
NATIONAL WEATHER SERVICE CHICAGO/ROMEOVILLE IL
800 AM CST FRI NOV 28 2014

NOTE: "FAIR" INDICATES FEW OR NO CLOUDS BELOW 12,000 FEET WITH NO
SIGNIFICANT WEATHER AND/OR OBSTRUCTIONS TO VISIBILITY.

* THESE STATIONS ARE NOT UNDER NWS QUALITY CONTROL. THEY ALSO MAY NOT
  REPORT WEATHER SUCH AS PRECIPITATION OR FOG.

ILZ001-002-007-009-015-016-024-281500-
NORTHWEST ILLINOIS

CITY           SKY/WX    TMP DP  RH WIND       PRES   REMARKS
MOLINE         PTCLDY    18  10  71 SE12      30.14F WCI   5
STERLING*      PTCLDY    19  12  73 SE9       30.19F WCI   9
SAVANNA*       PTCLDY    19  12  76 SE10      30.18F WCI   7
$$

ILZ003-004-008-010-011-017-018-281500-
NORTH CENTRAL ILLINOIS

CITY           SKY/WX    TMP DP  RH WIND       PRES   REMARKS
ROCKFORD       CLOUDY    19  12  74 S15       30.23F WCI   5
FREEPORT*      PTCLDY    17  11  79 SE12      30.21F WCI   4
ROCHELLE*      MOCLDY    17  14  85 SE10      30.24S WCI   5
DE KALB*       CLOUDY    17  13  85 SE14      30.23F WCI   3
PERU*          PTCLDY    21  16  80 SE13      30.25F WCI   9
$$

ILZ005-006-012>014-019>023-281500-
NORTHEAST ILLINOIS

CITY           SKY/WX    TMP DP  RH WIND       PRES   REMARKS
CHICAGO-OHARE  FLURRIES  20  14  77 S13       30.26F WCI   7
CHICAGO-MIDWAY FLURRIES  22  14  71 S9        30.28F WCI  12
AURORA         MOCLDY    20  12  71 S12       30.26F WCI   8
LANSING*       CLOUDY    22  16  78 S8        30.30S WCI  12
JOLIET*        CLOUDY    20  15  80 S6        30.29F WCI  12
WAUKEGAN       LGT SNOW  18  15  88 S6        30.25F VSB 1   WCI  10
DUPAGE AIRPORT CLOUDY    20  14  77 S10       30.25F WCI   9
KANKAKEE*      CLOUDY   N/A N/A N/A S10       30.30F
WHEELING       LGT SNOW  20  14  77 S10       30.28F WCI   9
MORRIS*        MOCLDY    20  17  86 S12       30.27F WCI   8
ROMEOVILLE*    CLOUDY    20  15  81 S12       30.27F WCI   8
NORTHERLY ISL    N/A     22  14  71 S13         N/A  WCI  10
$$

LMZ740>746-281500-
SOUTHERN LAKE MICHIGAN

STATION/POSITION SKY/WX   TEMP    WIND        PRES    VSBY  WAVE
                          AIR SEA DIR/SP/G                  HT/PER
                          (F)     (DEG/KT/KT) (MB)    (MI)  (FT/S)
SOUTHERN BUOY              26 42  210/ 12/ 19 1025.9F         2/ 6
WAUKEGAN HARBOR            19     190/  9/ 11   N/A
HARRISON CRIB              21     180/ 16/ 19   N/A
BURNHAM HARBOR             22     190/  8/ 11   N/A
CALUMET HARBOR             21     170/  8/ 11 1024.5S
MICHIGAN CITY              21     150/ 11/ 13   N/A
$$

ILZ025>027-034>036-040-047-049-050-058-095>099-281500-
WEST-CENTRAL ILLINOIS

CITY           SKY/WX    TMP DP  RH WIND       PRES   REMARKS
QUINCY         CLEAR     25  20  81 S13       30.11F WCI  14
GALESBURG*     PTCLDY    18  13  81 SE9       30.15F WCI   6
MACOMB*        PTCLDY    16  13  86 SE14      30.18F WCI   2
JACKSONVILLE*  PTCLDY    26  21  83 S9        30.19F WCI  17
PITTSFIELD*    CLEAR     25  22  88 SE13      30.16F WCI  14
$$

ILZ028>032-037-038-041>044-048-051>054-059>061-281500-
CENTRAL ILLINOIS

CITY           SKY/WX    TMP DP  RH WIND       PRES   REMARKS
PONTIAC        CLOUDY    22  16  78 SE10      30.28F WCI  11
BLOOMINGTON    PTCLDY    20  15  81 SE13      30.25F WCI   7
DECATUR        CLEAR     22  15  75 SE12      30.27F WCI  10
PEORIA         PTCLDY    21  11  65 SE10      30.21F WCI  10
LACON*         PTCLDY    20  12  70 SE10      30.22F WCI   9
LINCOLN*       PTCLDY    21  15  75 SE9       30.27F WCI  11
SPRINGFIELD    PTCLDY    24  18  77 SE13      30.23F WCI  12
TAYLORVILLE    CLOUDY    21  18  86 SE15      30.24F WCI   8
$$

ILZ033-039-045-046-055>057-062-063-281500-
EAST-CENTRAL ILLINOIS

CITY           SKY/WX    TMP DP  RH WIND       PRES   REMARKS
CHAMPAIGN      PTCLDY    21  15  78 SE9       30.30F WCI  11
DANVILLE*      CLOUDY    21  15  78 S10       30.30S WCI  10
RANTOUL*       CLOUDY    23  16  72 S9        30.30F WCI  13
MATTOON        MOSUNNY   23  17  78 S10       30.30F WCI  12
PARIS*         PTSUNNY   23  19  86 SE9       30.34S WCI  13
$$

ILZ079-100>102-281500-
SOUTHWEST ILLINOIS

CITY           SKY/WX    TMP DP  RH WIND       PRES   REMARKS
ALTON          PTCLDY    27  25  93 SE14      30.25F WCI  15
BELLEVILLE     CLEAR     27  27  99 S13       30.27F WCI  16
CAHOKIA*       CLEAR     29  26  89 S10       30.25F FOG     WCI  20
SPARTA*        SUNNY     28  25  87 S7        30.30F WCI  21
$$

ILZ064>066-069>071-074>076-080>082-084>086-088>090-092>094-281500-
SOUTH-CENTRAL ILLINOIS

CITY           SKY/WX    TMP DP  RH WIND       PRES   REMARKS
CARBONDALE     SUNNY     30  24  78 S10       30.33F WCI  21
CAIRO*         SUNNY     33  26  76 S12       30.37F WCI  24
EFFINGHAM*     MOSUNNY   23  17  76 SE10      30.31F WCI  13
MARION         SUNNY     30  25  80 S12       30.35F WCI  21
MT. VERNON     SUNNY     27  21  80 CALM      30.32F
CENTRALIA*     SUNNY     27  23  85 SE10      30.29F WCI  17
SALEM*           N/A     27  23  84 SE7       30.30F WCI  20
METROPOLIS*    SUNNY     30  28  92 SE5         N/A  WCI  25
$$

ILZ067-068-072-073-078-083-087-091-281500-
SOUTHEAST ILLINOIS

CITY           SKY/WX    TMP DP  RH WIND       PRES   REMARKS
LAWRENCEVILLE  MOSUNNY   26  22  84 S8        30.37F WCI  18
FLORA*         MOSUNNY   25  22  90 SE10      30.33F WCI  14
FAIRFIELD*     SUNNY     27  24  87 SE10      30.33F WCI  18
HARRISBURG*    SUNNY     29  27  94 SE6       30.37F FOG     WCI  23
ROBINSON*      CLOUDY    25  22  86 S8        30.37F WCI  17
CARMI*         SUNNY     29  28  97 SE8       30.36F FOG     WCI  21
$$

ABBREVIATIONS USED IN REMARKS
   TC - TEMPERATURE IN CELSIUS
  WCI - WIND CHILL INDEX
   HX - HEAT INDEX
  VSB - VISIBILITY
$$



USA.gov is the U.S. government's official web portal to all federal, state and local government web resources and services.